START_TIME,STEP,MOV.,M15,t_acc.,M20,t_acc.
1979-07-17 06:00:43.920 ,0,1,0.,24.0,0.,24.0
1979-07-17 06:01:07.920 ,4,1,0.,24.0,0.,24.0
1979-07-17 06:01:31.920 ,7,1,0.,24.0,0.,24.0
1979-07-17 06:01:55.920 ,3,1,0.,24.0,0.,24.0
1979-07-17 06:02:19.920 ,0,1,0.,24.0,0.,24.0
1979-07-17 06:02:43.920 ,4,1,0.,24.0,0.,24.0
1979-07-17 06:03:07.920 ,7,1,0.,24.0,0.,24.0
1979-07-17 06:03:31.920 ,3,1,0.,24.0,0.,24.0
1979-07-17 06:03:55.920 ,0,1,0.,24.0,0.,24.0
1979-07-17 06:04:19.920 ,4,1,0.,24.0,0.,24.0
1979-07-17 06:04:43.920 ,7,1,0.,24.0,0.,24.0
1979-07-17 06:05:07.920 ,3,1,0.,24.0,0.,24.0
1979-07-17 06:05:31.920 ,0,1,0.,24.0,0.,24.0
1979-07-17 06:05:55.920 ,0,0,0.,24.0,0.,24.0
1979-07-17 06:06:19.920 ,0,0,0.,24.0,0.,24.0
1979-07-17 06:06:43.920 ,5,1,0.,24.0,0.,24.0
1979-07-17 06:07:07.920 ,5,0,0.,24.0,0.,24.0
1979-07-17 06:07:31.920 ,4,1,0.,24.0,0.,24.0
1979-07-17 06:07:55.920 ,4,0,0.,24.0,0.,24.0
1979-07-17 06:08:19.920 ,3,1,0.,24.0,0.,24.0
1979-07-17 06:08:43.920 ,3,0,0.,24.0,0.,24.0
1979-07-17 06:09:07.920 ,2,1,0.,24.0,0.,24.0
1979-07-17 06:09:31.920 ,2,0,0.,24.0,0.,24.0
1979-07-17 06:09:55.920 ,1,1,0.,24.0,0.,24.0
1979-07-17 06:10:19.920 ,1,0,0.,24.0,0.,24.0
1979-07-17 06:10:43.920 ,0,1,0.,24.0,0.,24.0
1979-07-17 06:11:07.920 ,0,0,0.,24.0,0.,24.0
1979-07-17 06:11:31.920 ,0,1,0.,24.0,0.,24.0
1979-07-17 06:11:55.920 ,0,0,0.,24.0,0.,24.0
1979-07-17 06:12:19.920 ,1,1,0.,24.0,0.,24.0
1979-07-17 06:12:43.920 ,1,0,0.,24.0,0.,24.0
1979-07-17 06:13:07.920 ,2,1,0.,24.0,0.,24.0
1979-07-17 06:13:31.920 ,2,0,0.,24.0,0.,24.0
1979-07-17 06:13:55.920 ,3,1,0.,24.0,0.,24.0
1979-07-17 06:14:19.920 ,3,0,0.,24.0,0.,24.0
1979-07-17 06:14:43.920 ,4,1,0.,24.0,0.,24.0
1979-07-17 06:15:07.920 ,4,0,0.,24.0,0.,24.0
1979-07-17 06:15:31.920 ,5,1,0.,24.0,0.,24.0
1979-07-17 06:15:55.920 ,5,0,0.,24.0,0.,24.0
1979-07-17 06:16:19.920 ,6,1,0.,24.0,0.,24.0
1979-07-17 06:16:43.920 ,6,0,0.,24.0,0.,24.0
1979-07-17 06:17:07.920 ,7,1,0.,24.0,0.,24.0
1979-07-17 06:17:31.920 ,7,0,0.,24.0,0.,24.0
1979-07-17 06:17:55.920 ,7,1,0.,24.0,0.,24.0
1979-07-17 06:18:19.920 ,7,0,0.,24.0,0.,24.0
1979-07-17 06:18:43.910 ,6,1,0.,24.0,0.,24.0
1979-07-17 06:19:07.910 ,6,0,0.,24.0,0.,24.0
1979-07-17 06:19:31.910 ,5,1,0.,24.0,0.,24.0
1979-07-17 06:19:55.910 ,5,0,0.,24.0,0.,24.0
1979-07-17 06:20:19.910 ,4,1,0.,24.0,0.,24.0
1979-07-17 06:20:43.910 ,4,0,0.,24.0,0.,24.0
1979-07-17 06:21:07.910 ,3,1,0.,24.0,0.,24.0
1979-07-17 06:21:31.910 ,3,0,0.,24.0,0.,24.0
1979-07-17 06:21:55.910 ,2,1,0.,24.0,0.,24.0
1979-07-17 06:22:19.910 ,2,0,0.,24.0,0.,24.0
1979-07-17 06:22:43.910 ,1,1,0.,24.0,0.,24.0
1979-07-17 06:23:07.910 ,1,0,0.,24.0,0.,24.0
1979-07-17 06:23:31.910 ,0,1,0.,24.0,0.,24.0
1979-07-17 06:23:55.910 ,0,0,0.,24.0,0.,24.0
1979-07-17 06:24:19.910 ,0,1,0.,24.0,0.,24.0
1979-07-17 06:24:43.910 ,0,0,0.,24.0,0.,24.0
1979-07-17 06:25:07.910 ,1,1,0.,24.0,0.,24.0
1979-07-17 06:25:31.910 ,1,0,0.,24.0,0.,24.0
1979-07-17 06:25:55.910 ,2,1,0.,24.0,0.,24.0
1979-07-17 06:26:19.910 ,2,0,0.,24.0,0.,24.0
1979-07-17 06:26:43.910 ,3,1,0.,24.0,0.,24.0
1979-07-17 06:27:07.910 ,3,0,0.,24.0,0.,24.0
1979-07-17 06:27:31.910 ,4,1,0.,24.0,0.,24.0
1979-07-17 06:27:55.910 ,4,0,0.,24.0,0.,24.0
1979-07-17 06:28:19.910 ,5,1,0.,24.0,0.,24.0
1979-07-17 06:28:43.910 ,5,0,0.,24.0,0.,24.0
1979-07-17 06:29:07.910 ,6,1,0.,24.0,0.,24.0
1979-07-17 06:29:31.910 ,6,0,0.,24.0,0.,24.0
1979-07-17 06:29:55.910 ,7,1,0.,24.0,0.,24.0
1979-07-17 06:30:19.910 ,7,0,0.,24.0,0.,24.0
1979-07-17 06:30:43.910 ,7,1,0.,24.0,0.,24.0
1979-07-17 06:31:07.910 ,7,0,0.,24.0,0.,24.0
1979-07-17 06:31:31.910 ,6,1,0.,24.0,0.,24.0
1979-07-17 06:31:55.910 ,6,0,0.,24.0,0.,24.0
1979-07-17 06:32:19.910 ,5,1,0.,24.0,0.,24.0
1979-07-17 06:32:43.910 ,5,0,0.,24.0,0.,24.0
1979-07-17 06:33:07.910 ,4,1,0.,24.0,0.,24.0
1979-07-17 06:33:31.910 ,4,0,0.,24.0,0.,24.0
1979-07-17 06:33:55.910 ,3,1,0.,24.0,0.,24.0
1979-07-17 06:34:19.910 ,3,0,0.,24.0,0.,24.0
1979-07-17 06:34:43.910 ,2,1,0.,24.0,0.,24.0
1979-07-17 06:35:07.910 ,2,0,0.,24.0,0.,24.0
1979-07-17 06:35:31.910 ,1,1,0.,24.0,0.,24.0
1979-07-17 06:35:55.910 ,1,0,0.,24.0,0.,24.0
1979-07-17 06:36:19.910 ,0,1,0.,24.0,0.,24.0
1979-07-17 06:36:43.910 ,0,0,0.,24.0,0.,24.0
1979-07-17 06:37:07.910 ,0,1,0.,24.0,0.,24.0
1979-07-17 06:37:31.910 ,0,0,0.,24.0,0.,24.0
1979-07-17 06:37:55.910 ,1,1,0.,24.0,0.,24.0
1979-07-17 06:38:19.910 ,1,0,0.,24.0,0.,24.0
1979-07-17 06:38:43.910 ,0,0,,0,,0
1979-07-17 06:39:07.910 ,0,0,,0,,0
1979-07-17 06:39:10.910 ,0,0,0.,24.0,0.,24.0
1979-07-17 06:39:31.910 ,3,1,0.,24.0,0.,24.0
1979-07-17 06:39:55.910 ,3,0,0.,24.0,0.,24.0
1979-07-17 06:40:19.910 ,4,1,0.,24.0,0.,24.0
1979-07-17 06:40:43.910 ,4,0,0.,24.0,0.,24.0
1979-07-17 06:41:07.910 ,5,1,0.,24.0,0.,24.0
1979-07-17 06:41:31.910 ,5,0,0.,24.0,0.,24.0
1979-07-17 06:41:55.910 ,6,1,0.,24.0,0.,24.0
1979-07-17 06:42:19.910 ,6,0,0.,24.0,0.,24.0
1979-07-17 06:42:43.910 ,7,0,0.,24.0,0.,24.0
1979-07-17 06:43:07.910 ,7,0,0.,24.0,0.,24.0
1979-07-17 06:43:31.910 ,3,1,0.,24.0,0.,24.0
1979-07-17 06:43:55.910 ,0,1,0.,24.0,0.,24.0
1979-07-17 06:44:19.910 ,4,1,0.,24.0,0.,24.0
1979-07-17 06:44:43.910 ,7,1,0.,24.0,0.,24.0
1979-07-17 06:45:07.910 ,3,1,0.,24.0,0.,24.0
1979-07-17 06:45:31.910 ,0,1,0.,24.0,0.,24.0
1979-07-17 06:45:55.910 ,4,1,0.,24.0,0.,24.0
1979-07-17 06:46:19.910 ,7,1,0.,24.0,0.,24.0
1979-07-17 06:46:43.910 ,3,1,0.,24.0,0.,24.0
1979-07-17 06:47:07.910 ,0,1,0.,24.0,0.,24.0
1979-07-17 06:47:31.910 ,4,1,0.,24.0,0.,24.0
1979-07-17 06:47:55.910 ,7,1,0.,24.0,0.,24.0
1979-07-17 06:48:19.910 ,3,1,0.,24.0,0.,24.0
1979-07-17 06:48:43.910 ,0,1,0.,24.0,0.,24.0
1979-07-17 06:49:07.910 ,4,1,0.,24.0,0.,24.0
1979-07-17 06:49:31.910 ,7,1,0.,24.0,0.,24.0
1979-07-17 06:49:55.910 ,3,1,0.,24.0,0.,24.0
1979-07-17 06:50:19.910 ,0,1,0.,24.0,0.,24.0
1979-07-17 06:50:43.910 ,4,1,0.,24.0,0.,24.0
1979-07-17 06:51:07.910 ,7,1,0.,24.0,0.,24.0
1979-07-17 06:51:31.910 ,3,1,0.,24.0,0.,24.0
1979-07-17 06:51:55.910 ,0,1,0.,24.0,0.,24.0
1979-07-17 06:52:19.910 ,4,1,0.,24.0,0.,24.0
1979-07-17 06:52:43.910 ,7,1,0.,24.0,0.,24.0
1979-07-17 06:53:07.910 ,3,1,0.,24.0,0.,24.0
1979-07-17 06:53:31.910 ,0,1,0.,24.0,0.,24.0
1979-07-17 06:53:55.910 ,0,0,0.,24.0,0.,24.0
1979-07-17 06:54:19.910 ,0,0,0.,24.0,0.,24.0
1979-07-17 06:54:43.910 ,5,1,0.,24.0,0.,24.0
1979-07-17 06:55:07.910 ,5,0,0.,24.0,0.,24.0
1979-07-17 06:55:31.910 ,4,1,0.,24.0,0.,24.0
1979-07-17 06:55:55.910 ,4,0,0.,24.0,0.,24.0
1979-07-17 06:56:19.910 ,3,1,0.,24.0,0.,24.0
1979-07-17 06:56:43.910 ,3,0,0.,24.0,0.,24.0
1979-07-17 06:57:07.910 ,2,1,0.,24.0,0.,24.0
1979-07-17 06:57:31.910 ,2,0,0.,24.0,0.,24.0
1979-07-17 06:57:55.910 ,1,1,0.,24.0,0.,24.0
1979-07-17 06:58:19.910 ,1,0,0.,24.0,0.,24.0
1979-07-17 06:58:43.910 ,0,1,0.,24.0,0.,24.0
1979-07-17 06:59:07.910 ,0,0,0.,24.0,0.,24.0
1979-07-17 06:59:31.910 ,0,1,0.,24.0,0.,24.0
1979-07-17 06:59:55.910 ,0,0,0.,24.0,0.,24.0
1979-07-17 07:00:19.910 ,1,1,0.,24.0,0.,24.0
1979-07-17 07:00:43.910 ,1,0,0.,24.0,0.,24.0
1979-07-17 07:01:07.910 ,2,1,0.,24.0,0.,24.0
1979-07-17 07:01:31.910 ,2,0,0.,24.0,0.,24.0
1979-07-17 07:01:55.910 ,3,1,0.,24.0,0.,24.0
1979-07-17 07:02:19.910 ,3,0,0.,24.0,0.,24.0
1979-07-17 07:02:43.910 ,4,1,0.,24.0,0.,24.0
1979-07-17 07:03:07.910 ,4,0,0.,24.0,0.,24.0
1979-07-17 07:03:31.910 ,5,1,0.,24.0,0.,24.0
1979-07-17 07:03:55.910 ,5,0,0.,24.0,0.,24.0
1979-07-17 07:04:19.910 ,6,1,0.,24.0,0.,24.0
1979-07-17 07:04:43.910 ,6,0,0.,24.0,0.,24.0
1979-07-17 07:05:07.910 ,7,1,0.,24.0,0.,24.0
1979-07-17 07:05:31.910 ,7,0,0.,24.0,0.,24.0
1979-07-17 07:05:55.910 ,7,1,0.,24.0,0.,24.0
1979-07-17 07:06:19.910 ,7,0,0.,24.0,0.,24.0
1979-07-17 07:06:43.910 ,6,1,0.,24.0,0.,24.0
1979-07-17 07:07:07.910 ,6,0,0.,24.0,0.,24.0
1979-07-17 07:07:31.910 ,5,1,0.,24.0,0.,24.0
1979-07-17 07:07:55.910 ,5,0,0.,24.0,0.,24.0
1979-07-17 07:08:19.910 ,4,1,0.,24.0,0.,24.0
1979-07-17 07:08:43.910 ,4,0,0.,24.0,0.,24.0
1979-07-17 07:09:07.910 ,3,1,0.,24.0,0.,24.0
1979-07-17 07:09:31.910 ,0,0,0.,24.0,0.,24.0
1979-07-17 07:09:59.510 ,0,0,0.,24.0,0.,24.0
1979-07-17 07:10:19.910 ,0,0,0.,24.0,0.,24.0
1979-07-17 07:10:43.910 ,1,1,0.,24.0,0.,24.0
1979-07-17 07:11:07.910 ,1,0,0.,24.0,0.,24.0
1979-07-17 07:11:31.910 ,0,1,0.,24.0,0.,24.0
1979-07-17 07:11:55.910 ,0,0,0.,24.0,0.,24.0
1979-07-17 07:12:19.910 ,0,1,0.,24.0,0.,24.0
1979-07-17 07:12:43.910 ,0,0,0.,24.0,0.,24.0
1979-07-17 07:13:07.910 ,1,1,0.,24.0,0.,24.0
1979-07-17 07:13:31.910 ,1,0,0.,24.0,0.,24.0
1979-07-17 07:13:55.910 ,2,1,0.,24.0,0.,24.0
1979-07-17 07:14:19.910 ,2,0,0.,24.0,0.,24.0
1979-07-17 07:14:43.910 ,3,1,0.,24.0,0.,24.0
1979-07-17 07:15:07.910 ,3,0,0.,24.0,0.,24.0
1979-07-17 07:15:31.910 ,4,1,0.,24.0,0.,24.0
1979-07-17 07:15:55.910 ,4,0,0.,24.0,0.,24.0
1979-07-17 07:16:19.910 ,5,1,0.,24.0,0.,24.0
1979-07-17 07:16:43.910 ,5,0,0.,24.0,0.,24.0
1979-07-17 07:17:07.910 ,6,1,0.,24.0,0.,24.0
1979-07-17 07:17:31.910 ,6,0,0.,24.0,0.,24.0
1979-07-17 07:17:55.910 ,7,1,0.,24.0,0.,24.0
1979-07-17 07:18:19.910 ,7,0,0.,24.0,0.,24.0
1979-07-17 07:18:43.910 ,7,1,0.,24.0,0.,24.0
1979-07-17 07:19:07.910 ,7,0,0.,24.0,0.,24.0
1979-07-17 07:19:31.910 ,6,1,0.,24.0,0.,24.0
1979-07-17 07:19:55.910 ,6,0,0.,24.0,0.,24.0
1979-07-17 07:20:19.910 ,5,1,0.,24.0,0.,24.0
1979-07-17 07:20:43.910 ,5,0,0.,24.0,0.,24.0
1979-07-17 07:21:07.910 ,4,1,0.,24.0,0.,24.0
1979-07-17 07:21:31.910 ,4,0,0.,24.0,0.,24.0
1979-07-17 07:21:55.910 ,3,1,0.,24.0,0.,24.0
1979-07-17 07:22:19.910 ,3,0,0.,24.0,0.,24.0
1979-07-17 07:22:43.910 ,2,1,0.,24.0,0.,24.0
1979-07-17 07:23:07.910 ,2,0,0.,24.0,0.,24.0
1979-07-17 07:23:31.910 ,1,1,0.,24.0,0.,24.0
1979-07-17 07:23:55.910 ,1,0,0.,24.0,0.,24.0
1979-07-17 07:24:19.910 ,0,1,0.,24.0,0.,24.0
1979-07-17 07:24:43.910 ,0,0,0.,24.0,0.,24.0
1979-07-17 07:25:07.910 ,0,1,0.,24.0,0.,24.0
1979-07-17 07:25:31.910 ,0,0,0.,24.0,0.,24.0
1979-07-17 07:25:55.910 ,1,1,0.,24.0,0.,24.0
1979-07-17 07:26:19.910 ,1,0,0.,24.0,0.,24.0
1979-07-17 07:26:43.910 ,2,1,0.,24.0,0.,24.0
1979-07-17 07:27:07.910 ,2,0,0.,24.0,0.,24.0
1979-07-17 07:27:31.910 ,3,1,0.,24.0,0.,24.0
1979-07-17 07:27:55.910 ,3,0,0.,24.0,0.,24.0
1979-07-17 07:28:21.710 ,4,1,0.,24.0,0.,24.0
1979-07-17 07:28:43.910 ,4,0,0.,24.0,0.,24.0
1979-07-17 07:29:07.910 ,5,1,0.,24.0,0.,24.0
1979-07-17 07:29:31.910 ,5,0,0.,24.0,0.,24.0
1979-07-17 07:29:55.910 ,6,1,0.,24.0,0.,24.0
1979-07-17 07:30:19.910 ,6,0,0.,24.0,0.,24.0
1979-07-17 07:30:43.910 ,7,0,0.,24.0,0.,24.0
1979-07-17 07:31:07.910 ,7,0,0.,24.0,0.,24.0
1979-07-17 07:31:31.910 ,3,1,0.,24.0,0.,24.0
1979-07-17 07:31:55.910 ,0,1,0.,24.0,0.,24.0
1979-07-17 07:32:19.910 ,4,1,0.,24.0,0.,24.0
1979-07-17 07:32:43.910 ,7,1,0.,24.0,0.,24.0
1979-07-17 07:33:07.910 ,3,1,0.,24.0,0.,24.0
1979-07-17 07:33:31.910 ,0,1,0.,24.0,0.,24.0
1979-07-17 07:33:55.910 ,4,1,0.,24.0,0.,24.0
1979-07-17 07:34:19.910 ,7,1,0.,24.0,0.,24.0
1979-07-17 07:34:43.910 ,3,1,0.,24.0,0.,24.0
1979-07-17 07:35:07.910 ,0,1,0.,24.0,0.,24.0
1979-07-17 07:35:31.910 ,4,1,0.,24.0,0.,24.0
1979-07-17 07:35:55.910 ,7,1,0.,24.0,0.,24.0
1979-07-17 07:36:19.910 ,3,1,0.,24.0,0.,24.0
1979-07-17 07:36:43.910 ,0,1,0.,24.0,0.,24.0
1979-07-17 07:37:07.910 ,4,1,0.,24.0,0.,24.0
1979-07-17 07:37:31.910 ,7,1,0.,24.0,0.,24.0
1979-07-17 07:37:55.910 ,3,1,0.,24.0,0.,24.0
1979-07-17 07:38:19.910 ,0,1,0.,24.0,0.,24.0
1979-07-17 07:38:43.910 ,4,1,0.,24.0,0.,24.0
1979-07-17 07:39:07.910 ,7,1,0.,24.0,0.,24.0
1979-07-17 07:39:31.910 ,3,1,0.,24.0,0.,24.0
1979-07-17 07:39:55.910 ,0,1,0.,24.0,0.,24.0
1979-07-17 07:40:19.910 ,4,1,0.,24.0,0.,24.0
1979-07-17 07:40:43.910 ,7,1,0.,24.0,0.,24.0
1979-07-17 07:41:07.910 ,3,1,0.,24.0,0.,24.0
1979-07-17 07:41:31.910 ,0,1,0.,24.0,0.,24.0
1979-07-17 07:41:55.910 ,0,0,0.,24.0,0.,24.0
1979-07-17 07:42:19.910 ,0,0,0.,24.0,0.,24.0
1979-07-17 07:42:43.910 ,5,1,0.,24.0,0.,24.0
1979-07-17 07:43:07.910 ,5,0,0.,24.0,0.,24.0
1979-07-17 07:43:31.910 ,4,1,0.,24.0,0.,24.0
1979-07-17 07:43:55.910 ,4,0,0.,24.0,0.,24.0
1979-07-17 07:44:19.910 ,3,1,0.,24.0,0.,24.0
1979-07-17 07:44:43.910 ,3,0,0.,24.0,0.,24.0
1979-07-17 07:45:07.910 ,2,1,0.,24.0,0.,24.0
1979-07-17 07:45:31.910 ,2,0,0.,24.0,0.,24.0
1979-07-17 07:45:55.910 ,1,1,0.,24.0,0.,24.0
1979-07-17 07:46:19.910 ,1,0,0.,24.0,0.,24.0
1979-07-17 07:46:43.910 ,0,1,0.,24.0,0.,24.0
1979-07-17 07:47:07.910 ,0,0,0.,24.0,0.,24.0
1979-07-17 07:47:31.910 ,0,1,0.,24.0,0.,24.0
1979-07-17 07:47:55.910 ,0,0,0.,24.0,0.,24.0
1979-07-17 07:48:19.910 ,1,1,0.,24.0,0.,24.0
1979-07-17 07:48:43.910 ,1,0,0.,24.0,0.,24.0
1979-07-17 07:49:07.910 ,2,1,0.,24.0,0.,24.0
1979-07-17 07:49:31.910 ,2,0,0.,24.0,0.,24.0
1979-07-17 07:49:55.910 ,3,1,0.,24.0,0.,24.0
1979-07-17 07:50:19.910 ,3,0,0.,24.0,0.,24.0
1979-07-17 07:50:43.910 ,4,1,0.,24.0,0.,24.0
1979-07-17 07:51:07.910 ,4,0,0.,24.0,0.,24.0
1979-07-17 07:51:31.910 ,5,1,0.,24.0,0.,24.0
1979-07-17 07:51:55.910 ,5,0,0.,24.0,0.,24.0
1979-07-17 07:52:19.910 ,6,1,0.,24.0,0.,24.0
1979-07-17 07:52:43.910 ,6,0,0.,24.0,0.,24.0
1979-07-17 07:53:07.910 ,7,1,0.,24.0,0.,24.0
1979-07-17 07:53:31.910 ,7,0,0.,24.0,0.,24.0
1979-07-17 07:53:55.910 ,7,1,0.,24.0,0.,24.0
1979-07-17 07:54:19.910 ,7,0,0.,24.0,0.,24.0
1979-07-17 07:54:43.910 ,6,1,0.,24.0,0.,24.0
1979-07-17 07:55:07.910 ,6,0,0.,24.0,0.,24.0
1979-07-17 07:55:31.910 ,5,1,0.,24.0,0.,24.0
1979-07-17 07:55:55.910 ,5,0,0.,24.0,0.,24.0
1979-07-17 07:56:19.910 ,4,1,0.,24.0,0.,24.0
1979-07-17 07:56:43.910 ,4,0,0.,24.0,0.,24.0
1979-07-17 07:57:07.910 ,3,1,0.,24.0,0.,24.0
1979-07-17 07:57:31.910 ,3,0,0.,24.0,0.,24.0
1979-07-17 07:57:55.910 ,2,1,0.,24.0,0.,24.0
1979-07-17 07:58:19.910 ,2,0,0.,24.0,0.,24.0
1979-07-17 07:58:43.910 ,1,1,0.,24.0,0.,24.0
1979-07-17 07:59:07.910 ,1,0,0.,24.0,0.,24.0
1979-07-17 07:59:31.910 ,0,1,0.,24.0,0.,24.0
1979-07-17 07:59:55.910 ,0,0,0.,24.0,0.,24.0
1979-07-17 08:00:19.910 ,0,1,0.,24.0,0.,24.0
1979-07-17 08:00:43.910 ,0,0,0.,24.0,0.,24.0
1979-07-17 08:01:07.910 ,1,1,0.,24.0,0.,24.0
1979-07-17 08:01:31.910 ,1,0,0.,24.0,0.,24.0
1979-07-17 08:01:55.910 ,2,1,1.,24.0,0.,24.0
1979-07-17 08:02:19.910 ,2,0,0.,24.0,0.,24.0
1979-07-17 08:02:43.910 ,3,1,0.,24.0,0.,24.0
1979-07-17 08:03:07.910 ,3,0,0.,24.0,0.,24.0
1979-07-17 08:03:31.910 ,4,1,0.,24.0,0.,24.0
1979-07-17 08:03:55.910 ,4,0,0.,24.0,0.,24.0
1979-07-17 08:04:19.910 ,5,1,0.,24.0,0.,24.0
1979-07-17 08:04:43.910 ,5,0,0.,24.0,0.,24.0
1979-07-17 08:05:07.910 ,6,1,0.,24.0,0.,24.0
1979-07-17 08:05:31.910 ,6,0,0.,24.0,0.,24.0
1979-07-17 08:05:55.910 ,7,1,0.,24.0,0.,24.0
1979-07-17 08:06:19.910 ,7,0,0.,24.0,0.,24.0
1979-07-17 08:06:45.710 ,7,1,0.,24.0,0.,24.0
1979-07-17 08:07:07.910 ,7,0,0.,24.0,0.,24.0
1979-07-17 08:07:31.910 ,6,1,0.,24.0,0.,24.0
1979-07-17 08:07:55.910 ,6,0,0.,24.0,0.,24.0
1979-07-17 08:08:19.910 ,5,1,0.,24.0,0.,24.0
1979-07-17 08:08:43.910 ,5,0,0.,24.0,0.,24.0
1979-07-17 08:09:07.910 ,4,1,0.,24.0,0.,24.0
1979-07-17 08:09:31.910 ,4,0,0.,24.0,0.,24.0
1979-07-17 08:09:55.910 ,3,1,0.,24.0,0.,24.0
1979-07-17 08:10:19.910 ,3,0,0.,24.0,0.,24.0
1979-07-17 08:10:43.910 ,2,1,0.,24.0,0.,24.0
1979-07-17 08:11:07.910 ,2,0,0.,24.0,0.,24.0
1979-07-17 08:11:31.910 ,1,1,0.,24.0,0.,24.0
1979-07-17 08:11:55.910 ,1,0,0.,24.0,0.,24.0
1979-07-17 08:12:19.910 ,0,1,0.,24.0,0.,24.0
1979-07-17 08:12:43.910 ,0,0,0.,24.0,0.,24.0
1979-07-17 08:13:07.910 ,0,1,0.,24.0,0.,24.0
1979-07-17 08:13:31.910 ,0,0,0.,24.0,0.,24.0
1979-07-17 08:13:55.910 ,1,1,0.,24.0,0.,24.0
1979-07-17 08:14:19.910 ,1,0,0.,24.0,0.,24.0
1979-07-17 08:14:43.910 ,2,1,0.,24.0,0.,24.0
1979-07-17 08:15:07.910 ,2,0,0.,24.0,0.,24.0
1979-07-17 08:15:31.910 ,3,1,0.,24.0,0.,24.0
1979-07-17 08:15:55.910 ,3,0,0.,24.0,0.,24.0
1979-07-17 08:16:19.910 ,4,1,0.,24.0,0.,24.0
1979-07-17 08:16:43.910 ,4,0,0.,24.0,0.,24.0
1979-07-17 08:17:07.910 ,5,1,0.,24.0,0.,24.0
1979-07-17 08:17:31.910 ,5,0,0.,24.0,0.,24.0
1979-07-17 08:17:55.910 ,6,1,0.,24.0,0.,24.0
1979-07-17 08:18:19.910 ,6,0,0.,24.0,0.,24.0
1979-07-17 08:18:19.910 ,0,0,0.,24.0,0.,24.0
1979-07-17 08:18:43.910 ,7,0,0.,24.0,0.,24.0
1979-07-17 08:19:07.910 ,7,0,0.,24.0,0.,24.0
1979-07-17 08:19:31.910 ,3,1,0.,24.0,0.,24.0
1979-07-17 08:19:55.910 ,0,0,,0,,0
1979-07-17 08:20:20.510 ,0,0,0.,24.0,0.,24.0
1979-07-17 08:20:43.910 ,7,1,0.,24.0,0.,24.0
1979-07-17 08:21:07.910 ,3,1,0.,24.0,0.,24.0
1979-07-17 08:21:31.910 ,0,1,0.,24.0,0.,24.0
1979-07-17 08:21:55.910 ,4,1,0.,24.0,0.,24.0
1979-07-17 08:22:19.910 ,7,1,0.,24.0,0.,24.0
1979-07-17 08:22:43.910 ,3,1,0.,24.0,0.,24.0
1979-07-17 08:23:07.910 ,0,1,0.,24.0,0.,24.0
1979-07-17 08:23:31.910 ,4,1,0.,24.0,0.,24.0
1979-07-17 08:23:55.910 ,7,1,0.,24.0,0.,24.0
1979-07-17 08:24:19.910 ,3,1,0.,24.0,0.,24.0
1979-07-17 08:24:43.910 ,0,1,0.,24.0,0.,24.0
1979-07-17 08:25:07.910 ,4,1,0.,24.0,0.,24.0
1979-07-17 08:25:31.910 ,7,1,0.,24.0,0.,24.0
1979-07-17 08:25:55.910 ,3,1,0.,24.0,0.,24.0
1979-07-17 08:26:19.910 ,0,1,0.,24.0,0.,24.0
1979-07-17 08:26:43.910 ,4,1,0.,24.0,0.,24.0
1979-07-17 08:27:07.910 ,7,1,0.,24.0,0.,24.0
1979-07-17 08:27:31.910 ,3,1,0.,24.0,0.,24.0
1979-07-17 08:27:55.910 ,0,1,0.,24.0,0.,24.0
1979-07-17 08:28:19.910 ,4,1,0.,24.0,0.,24.0
1979-07-17 08:28:43.910 ,7,1,0.,24.0,0.,24.0
1979-07-17 08:29:07.910 ,3,1,0.,24.0,0.,24.0
1979-07-17 08:29:31.910 ,0,1,0.,24.0,0.,24.0
1979-07-17 08:29:55.910 ,0,0,0.,24.0,0.,24.0
1979-07-17 08:30:19.910 ,0,0,0.,24.0,0.,24.0
1979-07-17 08:30:43.910 ,5,1,0.,24.0,0.,24.0
1979-07-17 08:31:07.910 ,5,0,0.,24.0,0.,24.0
1979-07-17 08:31:31.910 ,4,1,0.,24.0,0.,24.0
1979-07-17 08:31:55.910 ,4,0,0.,24.0,0.,24.0
1979-07-17 08:32:19.910 ,0,0,,0,,0
1979-07-17 08:32:43.910 ,0,0,0.,24.0,0.,24.0
1979-07-17 08:33:07.910 ,2,1,0.,24.0,0.,24.0
1979-07-17 08:33:31.910 ,2,0,0.,24.0,0.,24.0
1979-07-17 08:33:55.910 ,1,1,0.,24.0,0.,24.0
1979-07-17 08:34:19.910 ,1,0,0.,24.0,0.,24.0
1979-07-17 08:34:43.910 ,0,1,0.,24.0,0.,24.0
1979-07-17 08:35:07.910 ,0,0,0.,24.0,0.,24.0
1979-07-17 08:35:31.910 ,0,1,0.,24.0,0.,24.0
1979-07-17 08:35:55.910 ,0,0,0.,24.0,0.,24.0
1979-07-17 08:36:19.910 ,1,1,0.,24.0,0.,24.0
1979-07-17 08:36:43.910 ,1,0,0.,24.0,0.,24.0
1979-07-17 08:37:07.910 ,2,1,0.,24.0,0.,24.0
1979-07-17 08:37:31.910 ,2,0,0.,24.0,0.,24.0
1979-07-17 08:37:55.910 ,3,1,0.,24.0,0.,24.0
1979-07-17 08:38:19.910 ,3,0,0.,24.0,0.,24.0
1979-07-17 08:38:43.910 ,4,1,0.,24.0,0.,24.0
1979-07-17 08:39:07.910 ,4,0,0.,24.0,0.,24.0
1979-07-17 08:39:31.910 ,5,1,0.,24.0,0.,24.0
1979-07-17 08:39:55.910 ,5,0,0.,24.0,0.,24.0
1979-07-17 08:40:19.910 ,6,1,0.,24.0,0.,24.0
1979-07-17 08:40:43.910 ,6,0,0.,24.0,0.,24.0
1979-07-17 08:41:07.910 ,7,1,0.,24.0,0.,24.0
1979-07-17 08:41:31.910 ,7,0,0.,24.0,0.,24.0
1979-07-17 08:41:55.910 ,7,1,0.,24.0,0.,24.0
1979-07-17 08:42:19.910 ,7,0,0.,24.0,0.,24.0
1979-07-17 08:42:43.910 ,6,1,0.,24.0,0.,24.0
1979-07-17 08:43:07.910 ,6,0,0.,24.0,0.,24.0
1979-07-17 08:43:31.910 ,5,1,0.,24.0,0.,24.0
1979-07-17 08:43:55.910 ,5,0,0.,24.0,0.,24.0
1979-07-17 08:44:19.910 ,4,1,0.,24.0,0.,24.0
1979-07-17 08:44:43.910 ,4,0,0.,24.0,0.,24.0
1979-07-17 08:45:07.910 ,3,1,0.,24.0,0.,24.0
1979-07-17 08:45:31.910 ,3,0,0.,24.0,0.,24.0
1979-07-17 08:45:55.910 ,2,1,0.,24.0,0.,24.0
1979-07-17 08:46:19.910 ,2,0,0.,24.0,0.,24.0
1979-07-17 08:46:43.910 ,1,1,0.,24.0,0.,24.0
1979-07-17 08:47:07.910 ,1,0,0.,24.0,0.,24.0
1979-07-17 08:47:31.910 ,0,1,0.,24.0,0.,24.0
1979-07-17 08:47:55.910 ,0,0,0.,24.0,0.,24.0
1979-07-17 08:48:19.910 ,0,1,0.,24.0,0.,24.0
1979-07-17 08:48:43.910 ,0,0,0.,24.0,0.,24.0
1979-07-17 08:49:07.910 ,1,1,0.,24.0,0.,24.0
1979-07-17 08:49:31.910 ,1,0,0.,24.0,0.,24.0
1979-07-17 08:49:55.910 ,2,1,0.,24.0,0.,24.0
1979-07-17 08:50:19.910 ,2,0,0.,24.0,0.,24.0
1979-07-17 08:50:43.910 ,3,1,0.,24.0,0.,24.0
1979-07-17 08:51:07.910 ,3,0,0.,24.0,0.,24.0
1979-07-17 08:51:31.910 ,4,1,0.,24.0,0.,24.0
1979-07-17 08:51:55.910 ,4,0,0.,24.0,0.,24.0
1979-07-17 08:52:19.910 ,5,1,0.,24.0,0.,24.0
1979-07-17 08:52:43.910 ,5,0,0.,24.0,0.,24.0
1979-07-17 08:53:07.910 ,6,1,0.,24.0,0.,24.0
1979-07-17 08:53:31.910 ,6,0,0.,24.0,0.,24.0
1979-07-17 08:53:55.910 ,7,1,0.,24.0,0.,24.0
1979-07-17 08:54:19.910 ,7,0,0.,24.0,0.,24.0
1979-07-17 08:54:43.910 ,7,1,0.,24.0,0.,24.0
1979-07-17 08:55:07.910 ,7,0,0.,24.0,0.,24.0
1979-07-17 08:55:31.910 ,6,1,0.,24.0,0.,24.0
1979-07-17 08:55:55.910 ,6,0,0.,24.0,0.,24.0
1979-07-17 08:56:19.910 ,5,1,0.,24.0,0.,24.0
1979-07-17 08:56:43.910 ,5,0,0.,24.0,0.,24.0
1979-07-17 08:57:07.910 ,4,1,0.,24.0,0.,24.0
1979-07-17 08:57:31.910 ,4,0,0.,24.0,0.,24.0
1979-07-17 08:57:55.910 ,3,1,0.,24.0,0.,24.0
1979-07-17 08:58:19.910 ,3,0,0.,24.0,0.,24.0
1979-07-17 08:58:43.910 ,2,1,0.,24.0,0.,24.0
1979-07-17 08:59:07.910 ,2,0,0.,24.0,0.,24.0
1979-07-17 08:59:31.910 ,1,1,0.,24.0,0.,24.0
1979-07-17 08:59:55.910 ,1,0,0.,24.0,0.,24.0
1979-07-17 09:00:19.910 ,0,1,0.,24.0,0.,24.0
